Location: Home
(42.5358°N, 72.7383°W)
Time: 10:44:24
(UTC-05:00)

S-56A Canister/Altair - Pass Details

Date: 29 November 2021
Orbit: 634 x 2499 km, 38.9° (Epoch: 22 January)

Event Time Altitude Azimuth Distance (km) Brightness Sun altitude
Rises 02:47:15 0° 255° (WSW) 4,093 - -45.7°
Reaches altitude 10° 02:50:32 10° 251° (WSW) 2,851 - -45.1°
Maximum altitude 02:56:52 57° 175° (S) 937 - -44.0°
Drops below altitude 10° 03:01:33 10° 96° (E) 2,123 - -43.1°
Exits shadow 03:01:52 - 96° (E) 2,248 10.5 -43.1°
Sets 03:03:41 0° 92° (E) 2,964 11.3 -42.7°
